Flag for Germany Weather past 2 weeks in Pirmasens, Rhineland-Palatinate, Germany

Now
59 °F

Clear.


Feels Like: 58 °F
Forecast: 53 / 61 °F
Wind: 6 mph from West

Location: Zweibrucken - Rheinland-Pfalz

Current Time: Aug 30, 2014 at 3:25:39 AM

Latest Report: Aug 30, 2014 at 2:50 AM


Visibility: 10 mi

Pressure: 30.09 "Hg

Humidity: 82%

Dew point: 54 °F

Location of PirmasensLocation

Historic Weather in Pirmasens — Graph

°F

Pirmasens temperature yesterday

Maximum temperature yesterday: 73 °F (at 4:20 PM)
Minimum temperature yesterday: 59 °F (at 2:50 AM)
Average temperature yesterday: 66 °F

Past Weeks' High & Low Weather Summary

 TemperatureHumidityPressure
High73 °F (Aug 29, 4:20 PM)100% (Aug 15, 7:50 AM)30.15 "Hg (Aug 15, 7:50 AM)
Low45 °F (Aug 21, 6:50 AM)43% (Aug 22, 1:50 PM)29.65 "Hg (Aug 26, 5:20 AM)
Average59 °F77%29.99 "Hg
* Reported Aug 15 1:50 AM — Aug 30 12:50 AM, Pirmasens, Weather by CustomWeather, © 2014

Note: Actual official high and low records may vary slightly from our data, if they occured in-between our weather recording intervals... More about our weather records

Advertising

Pirmasens weather history for previous 24 hours

 ConditionsComfort  
Time TempWeatherWind HumidityBarometerVisibility
12:50 AM
Aug 30
61 °FPassing clouds.8 mph88%30.09 "HgN/A
12:20 AM63 °FPassing clouds.7 mph77%30.09 "HgN/A
11:50 PM
Aug 29
63 °FPassing clouds.6 mph83%30.09 "HgN/A
11:20 PM64 °FClear.8 mph78%30.09 "Hg10 mi
9:50 PM64 °FPassing clouds.3 mph78%30.07 "HgN/A
8:50 PM66 °FSunny.2 mph73%30.04 "Hg10 mi
8:20 PM68 °FSunny.5 mph69%30.04 "Hg10 mi
7:50 PM68 °FSunny.5 mph69%30.04 "Hg10 mi
7:20 PM70 °FSunny.6 mph64%30.04 "Hg10 mi
6:50 PM72 °FPassing clouds.6 mph61%30.04 "HgN/A
6:20 PM72 °FSunny.8 mph61%30.04 "Hg10 mi
5:50 PM72 °FSunny.7 mph57%30.04 "Hg10 mi
5:20 PM72 °FPassing clouds.7 mph61%30.04 "HgN/A
4:50 PM72 °FPassing clouds.8 mph57%30.04 "HgN/A
4:20 PM73 °FPassing clouds.7 mph57%30.04 "HgN/A
3:50 PM72 °FScattered clouds.9 mph57%30.04 "HgN/A
3:20 PM70 °FScattered clouds.10 mph64%30.07 "HgN/A
2:50 PM70 °FScattered clouds.9 mph64%30.07 "HgN/A
2:20 PM72 °FScattered clouds.8 mph65%30.07 "HgN/A
1:50 PM68 °FBroken clouds.8 mph69%30.07 "HgN/A
1:20 PM68 °FScattered clouds.7 mph64%30.07 "HgN/A
12:50 PM66 °FPassing clouds.8 mph73%30.07 "HgN/A
12:20 PM66 °FScattered clouds.7 mph73%30.07 "HgN/A
11:50 AM64 °FBroken clouds.6 mph78%30.07 "HgN/A
11:20 AM66 °FScattered clouds.6 mph83%30.07 "HgN/A
10:50 AM63 °FScattered clouds.6 mph88%30.07 "HgN/A
10:20 AM61 °FPartly sunny.6 mph94%30.07 "HgN/A
9:50 AM61 °FLow clouds.7 mph94%30.07 "HgN/A
9:20 AM61 °FLow clouds.6 mph88%30.07 "HgN/A
8:50 AM59 °FPartly sunny.6 mph94%30.07 "HgN/A
8:20 AM59 °FPassing clouds.6 mph94%30.04 "HgN/A
7:50 AM59 °FClear.6 mph94%30.04 "Hg10 mi
3:50 AM59 °FClear.7 mph94%30.04 "Hg10 mi
3:20 AM59 °FClear.6 mph94%30.04 "Hg10 mi
Weather by CustomWeather, © 2014

See weather overviewHow to use our weather pages